RH
8 9 10 11 12 18 24 35 53 78 73 51 48 36 27 26 21 19 20 20 20 22 23 24 33 36 36 44 46 36 34 38 15 5 9 6 6 8 15 46 40 25 33 42 41
9 10 11 15 20 29 35 44 54 64 80 68 61 53 34 34 30 23 22 24 25 26 26 31 41 40 43 46 50 38 36 38 15 4 10 7 6 10 17 44 43 32 31 37 37
13 13 13 15 22 26 33 50 66 76 70 78 74 82 52 39 36 28 26 29 31 32 31 36 46 43 50 53 54 40 38 40 19 5 11 9 8 10 16 36 46 43 30 31 34
15 15 17 20 20 23 30 40 62 77 73 90 81 99 85 52 46 33 35 37 36 37 37 43 48 46 56 58 56 40 39 41 27 6 10 10 11 13 14 29 49 36 27 26 34
20 21 30 33 31 29 29 36 46 76 91 94 84 98 94 84 84 49 63 56 45 45 46 49 48 48 63 63 53 40 38 40 32 11 7 9 11 18 21 21 40 43 26 17 24
26 25 35 26 29 38 45 46 49 59 69 88 92 95 96 97 95 79 80 74 56 50 52 53 50 44 56 69 62 60 45 40 36 18 7 8 12 18 16 23 34 42 28 16 19
17 13 35 16 19 42 59 66 61 65 64 86 94 98 89 100 90 97 84 70 61 52 52 60 53 42 45 73 70 61 47 43 38 27 13 8 13 16 21 26 32 40 31 23 20
7 4 4 32 14 43 53 83 79 73 70 85 96 96 89 97 92 97 82 77 64 55 49 51 53 44 40 70 78 62 45 42 38 33 23 11 16 15 18 31 30 29 30 31 17
4 4 4 12 6 23 63 74 93 91 77 89 88 88 98 97 97 96 94 88 66 58 47 43 52 48 41 65 83 74 65 45 40 37 33 14 20 20 32 40 40 36 39 33 26
6 7 5 4 4 5 25 80 74 85 91 82 84 90 100 96 96 96 97 94 78 75 60 50 44 51 39 49 83 90 77 44 43 40 38 23 16 21 29 52 49 27 35 34 30
8 8 8 5 4 3 9 19 67 66 87 93 90 95 95 96 96 97 96 95 94 74 65 54 40 46 53 79 92 73 65 51 48 45 43 37 24 27 28 55 61 34 31 36 26
13 11 8 6 4 4 3 4 21 69 49 79 95 99 96 92 84 94 97 93 93 93 81 58 40 65 67 75 81 71 66 62 59 50 46 39 34 33 20 53 47 41 31 42 37
25 18 10 7 5 4 3 4 5 27 63 82 90 94 95 76 95 95 96 93 98 94 88 70 66 64 80 78 77 68 64 72 68 53 46 42 41 38 33 35 41 35 35 48 48
37 31 17 9 6 4 4 3 2 6 35 42 71 88 94 91 90 98 93 96 91 97 98 84 74 67 78 76 79 49 70 83 70 70 54 39 25 40 41 34 43 40 38 55 49
37 28 18 12 8 6 4 3 3 2 7 26 36 56 62 89 93 96 96 83 79 100 93 85 89 66 71 86 87 81 88 91 66 66 53 49 40 35 44 40 36 47 41 53 64
31 22 16 12 8 6 4 4 3 2 3 9 23 27 33 61 98 97 98 95 93 97 93 97 97 81 90 96 93 90 77 74 64 63 37 46 56 34 44 43 32 24 34 61 53
26 19 15 8 6 6 4 4 3 3 4 4 10 17 24 34 62 97 97 96 92 97 91 100 98 98 90 87 89 87 81 74 74 60 35 55 66 50 49 51 33 25 26 49 49
15 12 10 5 3 4 3 3 4 4 3 2 3 6 21 18 24 85 66 88 97 97 98 94 97 97 100 93 89 97 99 94 92 73 61 64 49 49 52 55 44 23 30 43 38
7 6 4 3 2 2 3 3 3 3 2 2 4 4 4 14 18 29 96 23 54 96 92 96 89 93 95 97 96 95 93 100 93 86 78 60 48 53 53 54 54 28 20 36 42
4 3 2 3 2 2 2 3 3 2 2 2 2 5 6 4 14 12 47 88 41 17 29 29 46 86 91 97 94 92 100 96 86 79 72 60 59 65 58 68 70 47 23 25 50
4 4 5 5 4 2 2 2 2 2 2 2 3 4 8 8 7 6 14 29 68 82 24 12 14 20 45 66 90 94 93 88 84 80 72 68 58 55 64 64 66 56 23 30 55
6 5 7 7 5 4 3 2 2 3 3 2 4 16 11 12 10 8 6 12 14 35 81 54 26 17 26 47 66 79 83 81 74 71 62 51 41 61 56 62 67 66 44 26 45
7 8 11 9 6 5 4 4 4 5 6 5 6 9 38 28 19 14 10 5 6 10 18 31 43 43 31 75 84 83 82 71 57 56 53 52 38 53 52 48 54 63 82 46 34
9 10 11 10 6 6 6 6 6 11 21 14 14 17 26 46 37 25 15 13 10 8 11 13 19 22 24 19 20 21 28 35 39 43 43 34 30 34 64 54 59 68 76 74 55
11 11 12 7 6 8 8 9 30 53 54 42 36 61 52 50 43 29 30 16 13 12 9 10 8 13 20 22 24 25 26 28 28 29 26 28 30 36 41 49 55 60 73 91 72
12 12 10 7 9 9 11 31 93 100 100 96 97 100 100 78 72 43 32 20 20 17 17 10 14 13 22 34 18 15 17 26 29 29 23 32 27 37 42 58 49 57 73 78 91
14 13 7 8 8 9 27 84 100 100 100 100 100 100 100 100 77 66 39 28 28 26 34 40 61 42 39 58 42 12 16 20 28 38 30 19 32 37 28 33 51 50 59 77 95
Wind_Speed
50 53 55 57 57 56 55 54 53 47 44 45 44 42 42 38 39 36 36 32 30 26 25 26 24 22 20 18 18 16 17 19 18 13 12 10 8 8 13 13 15 17 21 19 20
51 52 52 54 54 53 51 52 52 52 45 47 41 40 41 36 36 36 36 31 28 25 25 25 24 22 20 18 18 16 16 18 18 14 11 12 9 8 14 14 15 17 19 20 20
50 51 50 52 51 53 53 52 54 51 46 42 46 40 39 35 34 35 36 30 27 24 25 25 26 25 22 19 18 17 18 17 19 14 13 13 10 10 15 16 15 15 17 19 19
48 48 48 49 51 52 52 54 50 50 45 47 47 42 38 35 33 34 34 29 27 25 25 25 26 26 24 18 17 17 20 15 19 14 16 13 13 12 16 15 14 12 16 17 18
43 44 45 47 49 50 54 51 51 49 48 50 48 43 42 34 32 34 33 29 27 27 27 26 27 27 25 18 16 16 22 16 18 16 15 17 13 13 17 16 18 12 14 15 14
41 42 41 43 47 44 43 44 49 50 48 44 49 50 35 34 37 38 34 28 29 29 28 28 28 28 27 19 15 17 21 18 18 17 14 19 15 15 20 17 19 12 12 15 13
39 39 37 36 40 43 36 38 43 47 48 48 46 44 43 39 43 36 34 32 30 30 29 31 29 27 27 24 18 17 19 17 19 17 15 16 17 19 18 18 16 16 10 13 13
36 34 35 34 36 36 38 35 38 41 45 46 42 47 39 45 38 34 35 33 31 30 31 34 29 28 25 26 23 20 16 17 20 17 16 12 16 16 17 16 18 14 7 10 11
37 33 32 32 35 31 33 33 32 36 41 44 38 36 41 44 43 37 36 35 34 36 35 34 33 29 26 24 26 21 17 20 18 17 17 11 15 15 13 13 20 12 8 9 11
36 34 34 33 32 30 31 27 29 33 38 40 40 41 38 43 46 40 40 40 38 39 39 34 33 32 23 24 21 22 25 19 17 17 18 13 13 14 12 13 15 17 13 11 13
39 37 36 32 33 30 27 31 26 22 27 34 43 41 40 47 41 40 45 43 40 43 39 35 35 28 21 21 27 27 23 19 18 20 20 17 12 16 10 13 19 19 13 11 10
42 39 37 34 33 33 27 29 27 23 12 28 30 37 44 43 40 40 44 45 42 42 39 41 33 27 28 28 29 25 23 19 23 22 24 18 16 15 12 11 17 21 16 10 11
45 43 39 36 34 35 32 27 26 25 12 12 24 25 38 39 38 42 47 43 43 43 42 41 30 34 32 29 28 27 23 24 24 26 26 23 16 11 14 11 14 15 13 9 10
48 46 41 38 36 35 31 30 29 24 21 15 21 21 27 34 38 39 49 43 40 43 39 43 38 37 36 33 32 28 24 26 26 30 27 27 19 9 14 15 12 15 14 11 8
49 47 42 40 37 35 34 31 30 25 28 17 16 18 21 26 32 41 45 43 39 42 42 39 35 37 39 31 33 26 28 28 30 32 28 27 26 10 9 12 12 20 15 16 11
50 48 44 43 39 37 37 34 31 30 29 23 21 16 18 22 28 30 41 45 42 44 45 43 40 41 39 34 34 32 33 34 35 32 30 25 29 12 11 8 13 16 20 20 20
53 51 48 46 44 40 40 38 35 34 31 29 26 24 19 20 27 28 34 37 35 40 43 40 41 41 39 39 40 37 34 36 39 35 28 29 32 18 15 11 12 13 20 21 21
56 55 52 49 47 44 42 43 42 40 35 34 33 30 23 25 22 29 31 32 34 35 34 31 33 38 38 38 35 35 35 36 37 33 32 31 36 23 17 12 12 11 18 22 20
56 57 52 51 50 48 47 47 47 44 39 39 38 35 33 23 30 23 31 33 39 35 36 34 33 32 34 35 38 38 40 32 36 37 38 34 34 26 20 16 13 14 17 24 20
55 55 52 50 52 53 54 53 50 48 47 42 43 37 34 33 29 30 28 30 33 43 41 40 38 37 35 38 40 39 35 37 39 39 37 37 34 27 22 19 16 16 15 23 23
54 53 48 50 50 54 57 54 52 47 51 49 43 41 38 34 33 36 35 34 34 36 38 43 41 39 41 38 37 37 38 39 38 39 40 39 37 32 23 21 16 14 15 22 23
51 51 47 45 48 52 53 53 48 44 49 51 46 40 39 38 36 37 40 38 39 39 39 41 43 43 41 39 38 40 41 41 42 41 42 42 41 36 26 23 22 14 19 23 24
49 47 43 45 49 52 52 50 46 40 46 49 46 41 41 38 39 39 41 44 42 43 41 45 48 47 45 42 41 43 43 43 45 45 43 44 46 41 34 26 28 24 19 21 24
47 45 44 48 48 46 45 43 40 33 37 41 38 37 40 43 45 44 43 44 44 45 43 45 44 45 43 44 46 47 47 48 49 49 49 48 49 47 42 32 34 30 26 26 26
46 42 44 40 37 34 37 37 30 27 30 30 30 28 35 43 50 49 49 48 47 47 48 47 47 45 42 40 40 44 45 46 47 48 50 49 49 50 48 39 37 35 32 29 29
43 42 39 36 37 37 36 30 25 24 27 25 25 27 34 38 42 52 52 52 52 50 48 50 49 48 45 42 43 43 42 44 44 47 49 49 49 50 49 50 39 38 36 35 34
41 40 35 33 31 32 28 25 22 25 25 23 25 27 28 34 38 38 44 50 50 49 48 49 46 45 44 40 40 46 42 43 43 44 48 52 53 54 54 52 50 41 43 40 37
Wind_Direction
284 283 282 283 282 280 282 277 274 268 265 259 258 258 258 259 260 259 255 256 255 258 261 265 268 267 272 281 282 272 280 293 304 302 276 271 274 293 290 304 310 328 326 324 320
284 286 286 285 286 283 278 274 270 266 264 258 252 256 257 254 255 255 255 250 252 251 255 260 264 265 266 270 277 271 275 286 301 300 264 270 272 283 285 297 309 325 328 326 326
286 285 285 286 283 283 280 275 271 268 260 254 252 249 251 250 248 249 250 245 246 249 250 255 260 263 265 263 273 265 268 281 294 299 263 268 272 279 283 301 310 320 329 321 327
288 287 289 290 285 281 278 274 272 268 258 251 247 244 246 244 244 242 245 242 242 245 246 251 257 262 264 261 266 258 260 271 289 300 265 269 263 267 282 294 308 330 333 323 327
292 296 300 300 295 287 281 270 266 258 256 263 242 246 235 236 238 235 240 239 238 241 244 245 254 261 261 258 260 251 258 270 285 297 274 277 266 268 279 290 293 317 326 331 322
296 297 299 301 303 300 283 270 261 261 257 255 246 241 235 234 233 232 234 233 237 242 245 246 248 259 262 257 258 255 255 269 283 297 297 284 274 271 278 286 287 310 324 337 341
289 291 296 304 311 312 298 275 263 259 256 252 247 246 243 241 233 229 232 235 234 240 246 247 246 256 260 259 248 257 256 263 282 294 304 302 272 279 283 289 286 293 317 329 345
284 289 295 299 304 320 320 290 267 257 254 251 249 239 237 235 231 229 226 237 237 239 244 248 246 253 261 260 250 250 249 257 268 286 305 296 273 277 287 286 296 282 307 322 334
285 288 292 297 305 312 316 311 272 260 257 252 246 247 236 238 237 235 224 233 234 239 243 248 247 249 257 257 255 252 256 248 260 278 291 293 273 269 272 284 292 277 289 318 313
284 289 291 293 302 301 306 318 301 269 258 250 245 244 236 236 245 236 230 227 232 237 239 241 245 246 255 256 257 254 249 244 261 274 280 286 267 287 282 277 281 281 288 299 301
285 287 289 293 295 299 303 299 314 286 265 253 244 239 235 235 239 233 229 222 228 236 239 241 241 240 248 245 248 249 250 251 259 272 275 280 280 288 294 265 268 267 269 286 296
284 286 287 290 292 290 300 297 298 305 323 271 254 236 233 238 236 241 221 220 221 234 237 236 236 232 238 238 245 248 254 251 260 268 272 270 280 294 289 276 273 267 267 265 286
283 283 286 287 287 289 296 300 292 296 324 288 266 248 238 233 235 239 228 231 234 226 234 237 232 227 234 236 241 240 249 250 255 262 266 272 278 294 298 294 265 264 266 256 276
281 281 283 285 286 289 294 292 290 284 290 293 271 264 248 238 237 232 230 234 233 227 229 232 228 225 231 234 236 238 241 248 251 261 264 271 280 297 297 300 254 261 267 246 264
277 278 280 282 285 284 288 288 289 280 285 282 270 264 261 249 235 225 229 225 229 226 226 235 232 229 233 236 236 234 236 245 247 257 254 265 277 287 291 294 266 256 251 242 239
278 278 280 282 283 281 282 280 283 278 272 271 269 266 258 253 244 237 225 229 227 231 224 225 223 224 230 231 231 231 234 241 246 251 258 272 277 262 295 266 278 259 244 241 250
277 278 280 282 282 279 276 276 275 274 272 266 262 255 252 245 238 237 233 228 233 227 226 227 225 227 228 230 231 231 233 241 249 252 263 266 271 273 282 288 268 279 234 237 246
275 277 279 281 280 277 273 272 272 273 265 261 257 252 246 247 244 232 234 240 229 224 225 232 235 232 231 235 235 234 237 241 253 258 260 255 265 269 269 283 282 279 243 235 247
272 275 276 278 278 276 272 271 274 271 263 255 251 250 244 241 243 241 229 228 227 228 227 229 229 231 234 235 232 231 234 238 244 250 257 256 259 267 271 278 275 263 258 236 233
268 270 272 275 275 274 272 270 269 269 264 250 250 244 245 241 236 238 233 231 228 225 224 226 229 230 228 230 234 232 231 234 239 247 253 259 261 265 268 276 280 258 258 233 227
266 267 268 272 273 270 269 268 266 264 259 253 245 243 238 238 234 234 232 229 229 229 229 227 226 226 228 229 230 235 236 239 242 246 251 257 262 265 260 269 276 252 241 219 222
263 263 265 268 268 269 269 269 266 259 253 252 245 239 236 229 228 230 229 228 228 226 226 232 228 226 229 230 231 232 234 239 242 244 249 254 260 262 260 259 256 237 230 228 225
260 257 262 265 267 268 268 266 263 255 248 248 248 237 229 223 220 224 228 229 231 231 227 228 230 230 228 231 232 237 240 243 249 251 252 258 262 262 257 251 255 248 245 240 232
256 254 260 268 268 262 258 256 259 250 244 245 245 239 227 219 221 221 223 227 229 230 232 232 232 235 234 232 234 238 241 243 246 249 252 255 261 266 263 258 254 258 254 238 233
252 254 265 261 261 257 251 251 246 234 231 230 229 229 225 223 219 221 224 226 229 232 233 234 237 238 239 236 233 235 240 244 247 250 254 257 259 263 266 259 257 254 255 252 253
248 256 260 255 255 247 240 235 231 218 215 218 223 223 226 223 226 222 223 226 227 230 235 238 240 242 244 245 242 237 240 244 250 253 254 256 259 263 264 266 255 257 261 260 255
246 256 248 253 239 234 230 229 225 214 208 219 226 231 222 225 228 230 229 229 232 235 235 239 245 248 249 249 252 250 249 252 252 254 256 256 258 261 260 261 263 254 260 259 261